International Skating Union - Official Site

ESSENT ISU EUROPEAN SPEED SKATING CHAMPIONSHIPS 2012
January 6-8, 2012

Draw | Lap Times | Index | Classification

Referee: Helmut  RIPPER  (GER)
Starter: Jirku  JÄÄSKELÄINEN  (FIN)
StartTime: EndTime: Air Temp: Ice Temp: Humidity:
13:55 16:44 6℃ -11℃ 48%
Result 5000m Men
Rankings as of Jan 8 2012 11:44AM
Rank: No.: Name: Nation: Time: Behind: Points:
1 23 Sven  KRAMER NED NED 6:31.82200m - 18.75 - (18.7)
600m - 48.73 - (29.9)
1000m - 1:19.96 - (31.2)
1400m - 1:51.13 - (31.1)
1800m - 2:22.04 - (30.9)
2200m - 2:53.04 - (31.0)
2600m - 3:23.91 - (30.8)
3000m - 3:55.00 - (31.0)
3400m - 4:26.12 - (31.1)
3800m - 4:57.43 - (31.3)
4200m - 5:28.79 - (31.3)
4600m - 6:00.03 - (31.2)
5000m - 6:31.82 - (31.7)
39.182
2 21 Jan  BLOKHUIJSEN NED NED 6:36.49200m - 18.72 - (18.7)
600m - 49.03 - (30.3)
1000m - 1:20.12 - (31.0)
1400m - 1:51.42 - (31.3)
1800m - 2:22.63 - (31.2)
2200m - 2:53.95 - (31.3)
2600m - 3:25.52 - (31.5)
3000m - 3:57.20 - (31.6)
3400m - 4:28.85 - (31.6)
3800m - 5:00.39 - (31.5)
4200m - 5:32.26 - (31.8)
4600m - 6:04.23 - (31.9)
5000m - 6:36.49 - (32.2)
4.67 39.649
3 8 Alexis  CONTIN FRA FRA 6:38.08200m - 18.68 - (18.6)
600m - 48.77 - (30.0)
1000m - 1:20.07 - (31.3)
1400m - 1:51.84 - (31.7)
1800m - 2:23.20 - (31.3)
2200m - 2:54.37 - (31.1)
2600m - 3:25.47 - (31.1)
3000m - 3:57.49 - (32.0)
3400m - 4:29.35 - (31.8)
3800m - 5:01.25 - (31.8)
4200m - 5:33.41 - (32.1)
4600m - 6:05.91 - (32.5)
5000m - 6:38.08 - (32.1)
6.26 39.808
4 20 Ted-Jan  BLOEMEN NED NED 6:38.27200m - 19.12 - (19.1)
600m - 49.97 - (30.8)
1000m - 1:21.62 - (31.6)
1400m - 1:53.95 - (32.3)
1800m - 2:25.58 - (31.6)
2200m - 2:57.98 - (32.4)
2600m - 3:30.35 - (32.3)
3000m - 4:02.32 - (31.9)
3400m - 4:34.31 - (32.0)
3800m - 5:04.80 - (30.4)
4200m - 5:35.94 - (31.1)
4600m - 6:07.12 - (31.1)
5000m - 6:38.27 - (31.1)
6.45 39.827
5 25 Håvard  BØKKO NOR NOR 6:40.60200m - 18.44 - (18.4)
600m - 48.42 - (29.9)
1000m - 1:19.51 - (31.0)
1400m - 1:51.06 - (31.5)
1800m - 2:22.81 - (31.7)
2200m - 2:54.44 - (31.6)
2600m - 3:26.30 - (31.8)
3000m - 3:58.24 - (31.9)
3400m - 4:30.59 - (32.3)
3800m - 5:03.04 - (32.4)
4200m - 5:35.63 - (32.5)
4600m - 6:08.20 - (32.5)
5000m - 6:40.60 - (32.4)
8.78 40.060
6 19 Haralds  SILOVS LAT LAT 6:41.39200m - 18.84 - (18.8)
600m - 49.09 - (30.2)
1000m - 1:19.85 - (30.7)
1400m - 1:52.15 - (32.3)
1800m - 2:23.92 - (31.7)
2200m - 2:56.14 - (32.2)
2600m - 3:28.92 - (32.7)
3000m - 4:01.28 - (32.3)
3400m - 4:33.63 - (32.3)
3800m - 5:05.46 - (31.8)
4200m - 5:37.53 - (32.0)
4600m - 6:09.44 - (31.9)
5000m - 6:41.39 - (31.9)
9.57 40.139
7 24 Koen  VERWEIJ NED NED 6:41.42200m - 18.77 - (18.7)
600m - 49.39 - (30.6)
1000m - 1:21.12 - (31.7)
1400m - 1:52.40 - (31.2)
1800m - 2:23.83 - (31.4)
2200m - 2:55.29 - (31.4)
2600m - 3:27.12 - (31.8)
3000m - 3:59.06 - (31.9)
3400m - 4:30.98 - (31.9)
3800m - 5:03.40 - (32.4)
4200m - 5:35.83 - (32.4)
4600m - 6:08.58 - (32.7)
5000m - 6:41.42 - (32.8)
9.60 40.142
8 38 Denis  YUSKOV RUS RUS 6:41.89200m - 19.06 - (19.0)
600m - 49.98 - (30.9)
1000m - 1:20.69 - (30.7)
1400m - 1:51.60 - (30.9)
1800m - 2:22.63 - (31.0)
2200m - 2:53.58 - (30.9)
2600m - 3:25.30 - (31.7)
3000m - 3:57.97 - (32.6)
3400m - 4:31.15 - (33.1)
3800m - 5:03.89 - (32.7)
4200m - 5:36.38 - (32.4)
4600m - 6:08.75 - (32.3)
5000m - 6:41.89 - (33.1)
10.07 40.189
9 3 Bart  SWINGS BEL BEL 6:43.33200m - 19.40 - (19.4)
600m - 50.40 - (31.0)
1000m - 1:22.51 - (32.1)
1400m - 1:54.68 - (32.1)
1800m - 2:26.50 - (31.8)
2200m - 2:58.41 - (31.9)
2600m - 3:30.20 - (31.7)
3000m - 4:02.32 - (32.1)
3400m - 4:34.34 - (32.0)
3800m - 5:06.44 - (32.1)
4200m - 5:38.78 - (32.3)
4600m - 6:11.03 - (32.2)
5000m - 6:43.33 - (32.3)
11.51 40.333
10 29 Sverre  LUNDE PEDERSEN NOR NOR 6:44.64200m - 19.11 - (19.1)
600m - 50.06 - (30.9)
1000m - 1:22.41 - (32.3)
1400m - 1:54.58 - (32.1)
1800m - 2:26.80 - (32.2)
2200m - 2:59.29 - (32.4)
2600m - 3:31.63 - (32.3)
3000m - 4:03.84 - (32.2)
3400m - 4:35.91 - (32.0)
3800m - 5:08.12 - (32.2)
4200m - 5:39.96 - (31.8)
4600m - 6:11.94 - (31.9)
5000m - 6:44.64 - (32.7)
12.82 40.464
11 12 Patrick  BECKERT GER GER 6:45.22200m - 19.67 - (19.6)
600m - 50.36 - (30.6)
1000m - 1:21.89 - (31.5)
1400m - 1:53.96 - (32.0)
1800m - 2:26.19 - (32.2)
2200m - 2:58.69 - (32.5)
2600m - 3:31.75 - (33.0)
3000m - 4:04.85 - (33.1)
3400m - 4:37.38 - (32.5)
3800m - 5:09.42 - (32.0)
4200m - 5:41.19 - (31.7)
4600m - 6:12.84 - (31.6)
5000m - 6:45.22 - (32.3)
13.40 40.522
12 13 Moritz  GEISREITER GER GER 6:46.46200m - 19.54 - (19.5)
600m - 50.44 - (30.9)
1000m - 1:22.18 - (31.7)
1400m - 1:54.24 - (32.0)
1800m - 2:26.61 - (32.3)
2200m - 2:58.78 - (32.1)
2600m - 3:31.20 - (32.4)
3000m - 4:03.49 - (32.3)
3400m - 4:36.27 - (32.7)
3800m - 5:08.81 - (32.5)
4200m - 5:41.24 - (32.4)
4600m - 6:13.67 - (32.4)
5000m - 6:46.46 - (32.7)
14.64 40.646
13 33 Jan  SZYMANSKI POL POL 6:47.61200m - 18.83 - (18.8)
600m - 49.06 - (30.2)
1000m - 1:20.58 - (31.5)
1400m - 1:52.64 - (32.0)
1800m - 2:24.95 - (32.3)
2200m - 2:57.40 - (32.4)
2600m - 3:29.97 - (32.5)
3000m - 4:02.68 - (32.7)
3400m - 4:35.32 - (32.6)
3800m - 5:07.62 - (32.3)
4200m - 5:39.80 - (32.1)
4600m - 6:13.34 - (33.5)
5000m - 6:47.61 - (34.2)
15.79 40.761
14 18 Luca  STEFANI ITA ITA 6:56.05200m - 19.79 - (19.7)
600m - 52.19 - (32.4)
1000m - 1:25.39 - (33.2)
1400m - 1:58.31 - (32.9)
1800m - 2:31.13 - (32.8)
2200m - 3:04.56 - (33.4)
2600m - 3:37.60 - (33.0)
3000m - 4:10.95 - (33.3)
3400m - 4:44.19 - (33.2)
3800m - 5:17.12 - (32.9)
4200m - 5:50.00 - (32.8)
4600m - 6:23.00 - (33.0)
5000m - 6:56.05 - (33.0)
24.23 41.605
15 26 Kristian Reistad  FREDRIKSEN NOR NOR 6:57.42200m - 19.44 - (19.4)
600m - 51.01 - (31.5)
1000m - 1:23.14 - (32.1)
1400m - 1:55.71 - (32.5)
1800m - 2:28.20 - (32.4)
2200m - 3:00.70 - (32.5)
2600m - 3:33.56 - (32.8)
3000m - 4:06.85 - (33.2)
3400m - 4:40.65 - (33.8)
3800m - 5:15.09 - (34.4)
4200m - 5:49.39 - (34.3)
4600m - 6:23.82 - (34.4)
5000m - 6:57.42 - (33.6)
25.60 41.742
16 16 Marco  CIGNINI ITA ITA 6:58.67200m - 20.09 - (20.0)
600m - 52.56 - (32.4)
1000m - 1:25.50 - (32.9)
1400m - 1:58.20 - (32.7)
1800m - 2:30.98 - (32.7)
2200m - 3:03.72 - (32.7)
2600m - 3:36.33 - (32.6)
3000m - 4:09.33 - (33.0)
3400m - 4:42.53 - (33.2)
3800m - 5:16.02 - (33.4)
4200m - 5:50.10 - (34.0)
4600m - 6:24.25 - (34.1)
5000m - 6:58.67 - (34.4)
26.85 41.867
17 36 Sergey  GRYAZTSOV RUS RUS 7:00.38200m - 19.15 - (19.1)
600m - 50.96 - (31.8)
1000m - 1:22.97 - (32.0)
1400m - 1:55.23 - (32.2)
1800m - 2:27.83 - (32.6)
2200m - 3:00.79 - (32.9)
2600m - 3:33.83 - (33.0)
3000m - 4:08.59 - (34.7)
3400m - 4:42.07 - (33.4)
3800m - 5:15.95 - (33.8)
4200m - 5:50.23 - (34.2)
4600m - 6:25.19 - (34.9)
5000m - 7:00.38 - (35.1)
28.56 42.038
18 1 Bram  SMALLENBROEK AUT AUT 7:00.69200m - 19.91 - (19.9)
600m - 51.69 - (31.7)
1000m - 1:24.17 - (32.4)
1400m - 1:56.98 - (32.8)
1800m - 2:30.07 - (33.0)
2200m - 3:03.34 - (33.2)
2600m - 3:36.75 - (33.4)
3000m - 4:10.08 - (33.3)
3400m - 4:43.69 - (33.6)
3800m - 5:17.82 - (34.1)
4200m - 5:52.02 - (34.2)
4600m - 6:26.25 - (34.2)
5000m - 7:00.69 - (34.4)
28.87 42.069
19 2 Ferre  SPRUYT BEL BEL 7:01.38200m - 19.34 - (19.3)
600m - 51.05 - (31.7)
1000m - 1:24.29 - (33.2)
1400m - 1:57.56 - (33.2)
1800m - 2:31.32 - (33.7)
2200m - 3:05.10 - (33.7)
2600m - 3:38.75 - (33.6)
3000m - 4:12.57 - (33.8)
3400m - 4:46.87 - (34.3)
3800m - 5:20.67 - (33.8)
4200m - 5:54.80 - (34.1)
4600m - 6:28.78 - (33.9)
5000m - 7:01.38 - (32.6)
29.56 42.138
20 4 Vitaly  MIKHAILOV BLR BLR 7:01.44200m - 20.07 - (20.0)
600m - 51.37 - (31.3)
1000m - 1:23.50 - (32.1)
1400m - 1:56.62 - (33.1)
1800m - 2:29.95 - (33.3)
2200m - 3:03.56 - (33.6)
2600m - 3:37.05 - (33.4)
3000m - 4:10.77 - (33.7)
3400m - 4:44.87 - (34.1)
3800m - 5:19.07 - (34.2)
4200m - 5:53.63 - (34.5)
4600m - 6:28.03 - (34.4)
5000m - 7:01.44 - (33.4)
29.62 42.144
21 32 Konrad  NIEDZWIEDZKI POL POL 7:02.62200m - 19.87 - (19.8)
600m - 52.06 - (32.1)
1000m - 1:25.24 - (33.1)
1400m - 1:58.41 - (33.1)
1800m - 2:32.48 - (34.0)
2200m - 3:06.24 - (33.7)
2600m - 3:39.74 - (33.5)
3000m - 4:13.30 - (33.5)
3400m - 4:46.15 - (32.8)
3800m - 5:19.57 - (33.4)
4200m - 5:53.89 - (34.3)
4600m - 6:27.93 - (34.0)
5000m - 7:02.62 - (34.6)
30.80 42.262
22 10 Benjamin  MACÉ FRA FRA 7:03.02200m - 19.58 - (19.5)
600m - 50.13 - (30.5)
1000m - 1:22.37 - (32.2)
1400m - 1:54.75 - (32.3)
1800m - 2:27.53 - (32.7)
2200m - 3:00.13 - (32.6)
2600m - 3:33.30 - (33.1)
3000m - 4:07.22 - (33.9)
3400m - 4:41.53 - (34.3)
3800m - 5:16.29 - (34.7)
4200m - 5:51.58 - (35.2)
4600m - 6:27.10 - (35.5)
5000m - 7:03.02 - (35.9)
31.20 42.302
23 30 Zbigniew  BRODKA POL POL 7:06.06200m - 20.58 - (20.5)
600m - 53.83 - (33.2)
1000m - 1:26.51 - (32.6)
1400m - 1:59.21 - (32.7)
1800m - 2:32.06 - (32.8)
2200m - 3:04.95 - (32.8)
2600m - 3:37.77 - (32.8)
3000m - 4:10.96 - (33.1)
3400m - 4:44.58 - (33.6)
3800m - 5:18.70 - (34.1)
4200m - 5:53.75 - (35.0)
4600m - 6:29.81 - (36.0)
5000m - 7:06.06 - (36.2)
34.24 42.606
24 6 Milan  SÁBLIK CZE CZE 7:07.68200m - 19.80 - (19.8)
600m - 50.95 - (31.1)
1000m - 1:23.93 - (32.9)
1400m - 1:56.88 - (32.9)
1800m - 2:30.45 - (33.5)
2200m - 3:03.93 - (33.4)
2600m - 3:37.97 - (34.0)
3000m - 4:11.94 - (33.9)
3400m - 4:46.92 - (34.9)
3800m - 5:21.76 - (34.8)
4200m - 5:57.49 - (35.7)
4600m - 6:33.52 - (36.0)
5000m - 7:07.68 - (34.1)
35.86 42.768
25 28 Simen Spieler  NILSEN NOR NOR 7:08.04200m - 19.49 - (19.5)
600m - 51.02 - (31.5)
1000m - 1:23.79 - (32.7)
1400m - 1:56.71 - (32.9)
1800m - 2:29.74 - (33.0)
2200m - 3:03.37 - (33.6)
2600m - 3:37.51 - (34.1)
3000m - 4:12.00 - (34.4)
3400m - 4:46.82 - (34.8)
3800m - 5:22.07 - (35.2)
4200m - 5:57.14 - (35.0)
4600m - 6:32.80 - (35.6)
5000m - 7:08.04 - (35.2)
36.22 42.804
26 39 Martin  HÄNGGI SUI SUI 7:09.80200m - 19.94 - (19.9)
600m - 51.89 - (31.9)
1000m - 1:25.67 - (33.7)
1400m - 1:59.70 - (34.0)
1800m - 2:34.14 - (34.4)
2200m - 3:08.63 - (34.4)
2600m - 3:43.49 - (34.8)
3000m - 4:17.42 - (33.9)
3400m - 4:52.11 - (34.6)
3800m - 5:26.75 - (34.6)
4200m - 6:01.50 - (34.7)
4600m - 6:35.75 - (34.2)
5000m - 7:09.80 - (34.0)
37.98 42.980
27 34 Marian Cristian  ION ROU ROU 7:14.52200m - 20.30 - (20.3)
600m - 53.13 - (32.8)
1000m - 1:27.24 - (34.1)
1400m - 2:01.68 - (34.4)
1800m - 2:35.84 - (34.1)
2200m - 3:10.25 - (34.4)
2600m - 3:44.68 - (34.4)
3000m - 4:19.19 - (34.5)
3400m - 4:53.93 - (34.7)
3800m - 5:28.82 - (34.8)
4200m - 6:04.19 - (35.3)
4600m - 6:39.32 - (35.1)
5000m - 7:14.52 - (35.2)
42.70 43.452
28 35 Pavel  BAYNOV RUS RUS 7:16.25200m - 19.98 - (19.9)
600m - 52.12 - (32.1)
1000m - 1:25.39 - (33.2)
1400m - 1:59.48 - (34.0)
1800m - 2:33.93 - (34.4)
2200m - 3:08.56 - (34.6)
2600m - 3:43.86 - (35.3)
3000m - 4:18.65 - (34.7)
3400m - 4:53.92 - (35.2)
3800m - 5:29.46 - (35.5)
4200m - 6:05.51 - (36.0)
4600m - 6:41.44 - (35.9)
5000m - 7:16.25 - (34.8)
44.43 43.625
29 7 Tommi  PULLI FIN FIN 7:24.50200m - 19.56 - (19.5)
600m - 52.25 - (32.6)
1000m - 1:25.43 - (33.1)
1400m - 1:58.99 - (33.5)
1800m - 2:33.06 - (34.0)
2200m - 3:07.74 - (34.6)
2600m - 3:42.56 - (34.8)
3000m - 4:17.95 - (35.3)
3400m - 4:53.13 - (35.1)
3800m - 5:29.99 - (36.8)
4200m - 6:08.57 - (38.5)
4600m - 6:46.33 - (37.7)
5000m - 7:24.50 - (38.1)
52.68 44.450